Wellsville, NY

11:48 AM EDT on August 16, 2017 (GMT -0400)
Wellsville Municipal-Tarantine

Weather History for KELZ - June, 2012

Change the Weather History Date:

Sunday, June 24, 2012

  Actual Average (KDSV) Record (KDSV)
Temperature  
Mean Temperature 63 °F -  
Max Temperature 75 °F 78 °F 93 °F (1948)
Min Temperature 53 °F 55 °F 44 °F (1974)
Degree Days  
Heating Degree Days 2    
Growing Degree Days 13 (Base 50)    
Moisture  
Dew Point 52 °F    
Average Humidity 66    
Maximum Humidity 93    
Minimum Humidity 43    
Precipitation  
Precipitation 0.00 in - - ()
Sea Level Pressure  
Sea Level Pressure 30.03 in    
Wind  
Wind Speed 3 mph (WSW)    
Max Wind Speed 8 mph    
Max Gust Speed -    
Visibility 10 miles    
Events      
Averages and records for this station are not official NWS values.
T = Trace of Precipitation, MM = Missing Value Source: NWS Daily Summary

Daily Weather History Graph

Daily Weather History Graph

Search for Another Location

Airport or City:

Trip Planner

Search our weather history database for the weather conditions in past years. The results will help you decide how hot, cold, wet, or windy it might be!

Date:

Astronomy

Jun. 24, 2012 Rise Set
Actual Time 5:37 AM EDT 8:51 PM EDT
Civil Twilight 5:02 AM EDT 9:26 PM EDT
Nautical Twilight 4:17 AM EDT 10:11 PM EDT
Astronomical Twilight 3:23 AM EDT 11:05 PM EDT
Moon 10:46 AM EDT (6/24) 11:43 PM EDT (6/24)
Length of Visible Light 16h 24m
Length of Day
15h 14m
Waxing Crescent, 24% of the Moon is Illuminated
Jun 24
Waxing Crescent
Jun 26
First Quarter
Jul 3
Full
Jul 10
Last Quarter
Jul 19
New

Hourly Weather History & Observations

Time (EDT) Temp. Dew Point Humidity Pressure Visibility Wind Dir Wind Speed Gust Speed Precip Events Conditions
12:56 AM 57.0 °F 51.1 °F 81% 30.09 in 10.0 mi West 4.6 mph - N/A   Clear
1:56 AM 55.9 °F 51.1 °F 84% 30.09 in 10.0 mi Calm Calm - N/A   Clear
2:56 AM 55.9 °F 51.1 °F 84% 30.09 in 10.0 mi Calm Calm - N/A   Clear
3:56 AM 54.0 °F 50.0 °F 86% 30.10 in 10.0 mi Calm Calm - N/A   Clear
4:56 AM 53.1 °F 51.1 °F 93% 30.09 in 5.0 mi Calm Calm - N/A   Clear
5:56 AM 53.1 °F 50.0 °F 89% 30.09 in 9.0 mi Calm Calm - N/A   Clear
6:56 AM 55.9 °F 53.1 °F 90% 30.09 in 10.0 mi Calm Calm - N/A   Clear
7:56 AM 61.0 °F 55.0 °F 81% 30.09 in 10.0 mi Calm Calm - N/A   Clear
8:56 AM 66.9 °F 55.9 °F 68% 30.08 in 10.0 mi Calm Calm - N/A   Clear
9:56 AM 70.0 °F 52.0 °F 53% 30.07 in 10.0 mi WSW 4.6 mph - N/A   Clear
10:56 AM 71.1 °F 52.0 °F 51% 30.05 in 10.0 mi Variable 4.6 mph - N/A   Clear
11:56 AM 72.0 °F 52.0 °F 49% 30.05 in 10.0 mi SW 5.8 mph - N/A   Clear
12:56 PM 72.0 °F 52.0 °F 49% 30.04 in 10.0 mi West 6.9 mph - N/A   Clear
1:56 PM 73.9 °F 50.0 °F 43% 30.02 in 10.0 mi West 8.1 mph - N/A   Clear
2:56 PM 73.9 °F 52.0 °F 46% 30.01 in 10.0 mi SW 4.6 mph - N/A   Clear
3:56 PM 73.9 °F 51.1 °F 45% 30.01 in 10.0 mi NW 8.1 mph - N/A   Partly Cloudy
4:56 PM 71.1 °F 52.0 °F 51% 30.00 in 10.0 mi NNW 6.9 mph - N/A   Mostly Cloudy
5:56 PM 69.1 °F 52.0 °F 54% 29.99 in 10.0 mi WNW 3.5 mph - N/A   Overcast
6:56 PM 68.0 °F 55.0 °F 63% 29.98 in 10.0 mi Calm Calm - N/A   Overcast
7:56 PM 68.0 °F 53.1 °F 59% 29.96 in 10.0 mi South 3.5 mph - N/A   Overcast
8:56 PM 66.9 °F 53.1 °F 61% 29.93 in 10.0 mi SSW 4.6 mph - N/A   Overcast
9:56 PM 64.9 °F 53.1 °F 65% 29.92 in 10.0 mi SSW 6.9 mph - N/A   Partly Cloudy
10:56 PM 64.9 °F 52.0 °F 63% 29.90 in 10.0 mi SW 6.9 mph - N/A   Mostly Cloudy
11:56 PM 64.0 °F 52.0 °F 65% 29.87 in 10.0 mi SW 5.8 mph - N/A   Scattered Clouds